Location: Millers Ferry
(32.0990°N, 87.3680°W)
Time: 18:44:54
(UTC-05:00)

CSL-04 Rocket - Visible Passes

Search period start: 02 September 2014 00:00
Search period end: 12 September 2014 00:00
Orbit: 806 x 861 km, 98.9° (Epoch: 02 September)

Date Brightness Start Highest point End Pass type
(mag) Time Alt. Az. Time Alt. Az. Time Alt. Az.
02 Sep 4.0 04:56:40 10° NNE 05:01:54 63° ESE 05:07:08 10° S visible
03 Sep 4.8 04:40:08 10° NNE 04:45:07 42° E 04:50:06 10° S visible
04 Sep 5.4 04:23:47 10° NE 04:28:18 28° E 04:32:49 10° SSE visible
05 Sep 6.0 04:07:45 10° NE 04:11:26 19° E 04:15:08 10° SE visible
05 Sep 4.1 05:46:56 10° N 05:51:51 41° WNW 05:56:48 10° SW visible
06 Sep 6.4 03:52:23 10° ENE 03:54:33 12° E 03:56:43 10° ESE visible
06 Sep 3.7 05:29:58 10° N 05:35:11 61° WNW 05:40:25 10° SSW visible
07 Sep 3.6 05:13:09 10° NNE 05:18:28 89° WNW 05:23:48 10° SSW visible
08 Sep 4.1 04:56:28 10° NNE 05:01:43 62° ESE 05:06:59 10° S visible
09 Sep 4.8 04:39:56 10° NNE 04:44:56 41° E 04:49:57 10° S visible
10 Sep 5.5 04:23:36 10° NE 04:28:07 28° E 04:32:39 10° SSE visible
10 Sep 4.5 06:03:50 10° NNW 06:08:19 29° WNW 06:12:50 10° SW visible
11 Sep 6.0 04:07:34 10° NE 04:11:16 19° E 04:14:58 10° SE visible
11 Sep 4.1 05:46:43 10° N 05:51:41 42° WNW 05:56:41 10° SW visible
